Location: Big Prairie
(40.6673°N, 82.0952°W)
Time: 19:44:58
(UTC+00:00)

USA 276 - Pass Details

Date: 05 July 2022
Orbit: 366 x 369 km, 50.0° (Epoch: 12 July)

Event Time Altitude Azimuth Distance (km) Brightness Sun altitude
Rises 02:57:58 0° 295° (WNW) 2,207 7.0 -17.0°
Reaches altitude 10° 03:00:42 10° 322° (NW) 1,359 6.2 -17.3°
Maximum altitude 03:02:27 14° 357° (N) 1,140 5.2 -17.5°
Drops below altitude 10° 03:04:12 10° 33° (NNE) 1,360 5.1 -17.7°
Sets 03:06:56 0° 60° (ENE) 2,209 5.9 -18.0°
Enters shadow 03:06:57 - 60° (ENE) 2,217 5.9 -18.0°
